This demonstration page uses our WeatherBlox Daily Observations layout. Learn more.

Left ArrowRight Arrow

36.19886, -115.1175

Hourly Observations for February 5, 2017

Temp ( °F °C ) Dew Point ( °F °C ) Humidity (%) Winds ( mph kmh ) Pressure ( in mb ) Visibility ( mi km ) Precip ( " mm )
12:53 am 00:53 Clear 50 10 37 2.8 61 61 NNW 5 7 30.08 1019 10 16 0.00 0.00
1:53 am 01:53 Clear 46 7.8 38 3.3 73 73 NW 3 6 30.08 1019 10 16 0.00 0.00
2:53 am 02:53 Clear 48 8.9 37 2.8 66 66 NNW 3 6 30.07 1018 10 16 0.00 0.00
3:53 am 03:53 Clear 46 7.8 38 3.3 73 73 Calm 30.06 1018 10 16 0.00 0.00
4:53 am 04:53 Clear 45 7.2 38 3.3 77 77 WNW 5 7 30.06 1018 10 16 0.00 0.00
5:53 am 05:53 Clear 44 6.7 37 2.8 76 76 Calm 30.08 1019 10 16 0.00 0.00
6:53 am 06:53 Sunny 44 6.7 37 2.8 76 76 NNW 3 6 30.09 1019 10 16 0.00 0.00
7:53 am 07:53 Sunny 48 8.9 37 2.8 66 66 NW 5 7 30.11 1020 10 16 0.00 0.00
8:53 am 08:53 Sunny 54 12.2 38 3.3 55 55 Calm 30.11 1020 10 16 0.00 0.00
9:53 am 09:53 Sunny 55 12.8 38 3.3 53 53 SSE 5 7 30.11 1020 10 16 0.00 0.00
10:53 am 10:53 Sunny 58 14.4 38 3.3 48 48 E 5 7 30.09 1019 10 16 0.00 0.00
11:53 am 11:53 Sunny 59 15 38 3.3 46 46 SE 5 7 30.04 1017 10 16 0.00 0.00
12:53 pm 12:53 Sunny 60 15.6 37 2.8 42 42 SE 7 11 29.98 1015 10 16 0.00 0.00
1:53 pm 13:53 Sunny 62 16.7 36 2.2 38 38 SE 7 11 29.96 1015 10 16 0.00 0.00
2:53 pm 14:53 Sunny 62 16.7 36 2.2 38 38 S 6 9 29.95 1014 10 16 0.00 0.00
3:53 pm 15:53 Sunny 62 16.7 37 2.8 40 40 SSE 5 7 29.94 1014 10 16 0.00 0.00
4:53 pm 16:53 Sunny 61 16.1 37 2.8 41 41 ESE 3 6 29.94 1014 10 16 0.00 0.00
5:53 pm 17:53 Clear 60 15.6 37 2.8 42 42 SE 3 6 29.94 1014 10 16 0.00 0.00
6:53 pm 18:53 Clear 59 15 37 2.8 44 44 ESE 3 6 29.94 1014 10 16 0.00 0.00
7:53 pm 19:53 Clear 58 14.4 37 2.8 46 46 E 3 6 29.93 1014 10 16 0.00 0.00
8:53 pm 20:53 Clear 55 12.8 37 2.8 51 51 SSE 6 9 29.91 1013 10 16 0.00 0.00
9:53 pm 21:53 Clear 53 11.7 37 2.8 55 55 Calm 29.90 1013 10 16 0.00 0.00
10:53 pm 22:53 Clear 52 11.1 37 2.8 57 57 ENE 3 6 29.89 1012 10 16 0.00 0.00
11:53 pm 23:53 Clear 53 11.7 36 2.2 52 52 Calm 29.89 1012 10 16 0.00 0.00

Powered by AerisWeather